EW3281 Weather Reports


Display with metric or nautical units.
time (UTC)temp
F
wind
direction
speed
MPH
gust
MPH
rain 1hr
in
rain 24hr
in
rain mn
in
humidity
%
barometer
mb
20260901154516 64 72 0.0 0.0 0.15 0.37 0.00 94 1015.8
20260901153521 64 352 0.0 0.0 0.16 0.37 0.00 94 1015.8
20260901153017 64 53 0.0 0.0 0.16 0.36 0.36 94 1015.8
20260901152516 65 68 0.0 0.0 0.17 0.35 0.35 95 1015.8
20260901152018 65 68 0.0 0.0 0.17 0.34 0.34 94 1015.8
20260901151529 65 68 0.0 0.0 0.19 0.34 0.34 95 1015.8
20260901151015 65 68 0.0 0.0 0.20 0.33 0.33 95 1015.7
20260901150515 65 68 0.0 0.0 0.23 0.32 0.32 94 1015.8
20260901150020 65 68 0.0 0.0 0.26 0.32 0.32 94 1015.9
20260901145515 65 68 0.0 0.0 0.24 0.30 0.30 94 1015.8
20260901145015 65 68 0.0 0.0 0.22 0.28 0.28 94 1015.7
20260901144518 65 63 0.0 0.0 0.21 0.26 0.26 94 1015.6
20260901143512 65 262 0.0 0.0 0.17 0.22 0.22 93 1015.8
20260901143010 66 262 0.0 0.0 0.16 0.21 0.21 93 1015.8
20260901142509 66 262 0.0 0.0 0.14 0.19 0.19 93 1016.0
20260901142009 67 262 0.0 0.0 0.13 0.18 0.18 93 1016.0
20260901141509 68 259 0.0 0.0 0.12 0.16 0.16 94 1016.3
20260901141009 68 259 0.0 0.0 0.10 0.14 0.14 94 1016.4
20260901140509 68 259 0.0 0.0 0.08 0.11 0.11 93 1016.3
20260901140007 68 257 0.0 0.0 0.05 0.07 0.07 94 1016.2
20260901135508 68 257 0.0 0.0 0.05 0.06 0.06 94 1015.9
20260901135007 68 257 0.0 0.0 0.06 0.06 0.06 94 1015.6
20260901134508 68 257 0.0 0.0 0.05 0.05 0.05 93 1015.6
20260901133508 68 257 0.0 0.0 0.05 0.05 0.05 93 1015.4
20260901133006 68 257 0.0 0.0 0.05 0.05 0.05 93 1015.3
20260901132506 68 257 0.0 0.0 0.05 0.05 0.05 93 1015.4
20260901132006 68 257 0.0 0.0 0.05 0.05 0.05 92 1015.4
20260901131506 68 257 0.0 0.0 0.05 0.05 0.05 92 1015.5
20260901131005 68 257 0.0 0.0 0.04 0.04 0.04 92 1015.4
20260901130506 68 257 0.0 0.0 0.04 0.04 0.04 91 1015.4
20260901130005 68 257 0.0 0.0 0.03 0.03 0.03 91 1015.4
20260901125505 68 257 0.0 0.0 0.02 0.02 0.02 91 1015.4
20260901125005 68 257 0.0 0.0 0.00 0.00 0.00 90 1015.4
20260901124505 68 257 0.0 0.0 0.00 0.00 0.00 90 1015.4
20260901123505 68 257 0.0 0.0 0.00 0.00 0.00 90 1015.4
20260901123005 68 257 0.0 0.0 0.00 0.00 0.00 90 1015.5
20260901122505 68 257 0.0 0.0 0.00 0.00 0.00 90 1015.5
20260901122005 68 257 0.0 0.0 0.00 0.00 0.00 91 1015.3
20260901121505 68 257 0.0 0.0 0.00 0.00 0.00 91 1015.4
20260901121005 68 257 0.0 0.0 0.00 0.00 0.00 91 1015.4
20260901120504 68 257 0.0 0.0 0.00 0.00 0.00 92 1015.4
20260901120005 68 257 0.0 0.0 0.00 0.00 0.00 92 1015.3
20260901115504 68 257 0.0 0.0 0.00 0.00 0.00 93 1015.3
20260901115004 68 257 0.0 0.0 0.00 0.00 0.00 93 1015.4
20260901114504 68 257 0.0 0.0 0.00 0.00 0.00 93 1015.4
20260901113504 68 257 0.0 0.0 0.00 0.00 0.00 93 1015.5
20260901113007 67 257 0.0 0.0 0.00 0.00 0.00 93 1015.3
20260901112504 67 257 0.0 0.0 0.00 0.00 0.00 93 1015.3
20260901112006 67 257 0.0 0.0 0.00 0.00 0.00 93 1015.3
20260901111504 67 257 0.0 0.0 0.00 0.00 0.00 93 1015.3
20260901111006 67 257 0.0 0.0 0.00 0.00 0.00 93 1015.3
20260901110503 67 257 0.0 0.0 0.00 0.00 0.00 93 1015.2
20260901110003 67 257 0.0 0.0 0.00 0.00 0.00 93 1015.2
20260901105504 67 257 0.0 0.0 0.00 0.00 0.00 93 1015.3
20260901105004 67 257 0.0 0.0 0.00 0.00 0.00 93 1015.2
20260901104502 67 257 0.0 0.0 0.00 0.00 0.00 93 1015.2
20260901103505 67 257 0.0 0.0 0.00 0.00 0.00 93 1015.0
20260901103003 67 257 0.0 0.0 0.00 0.00 0.00 93 1015.0
20260901102504 67 257 0.0 0.0 0.00 0.00 0.00 93 1015.0
20260901102004 67 257 0.0 0.0 0.00 0.00 0.00 93 1014.9
20260901101510 67 257 0.0 0.0 0.00 0.00 0.00 93 1014.8
20260901101005 67 257 0.0 0.0 0.00 0.00 0.00 93 1014.9
20260901100502 67 257 0.0 0.0 0.00 0.00 0.00 93 1014.9
20260901100002 67 257 0.0 0.0 0.00 0.00 0.00 93 1014.9
20260901095502 67 257 0.0 0.0 0.00 0.00 0.00 93 1014.9
20260901095002 67 257 0.0 0.0 0.00 0.00 0.00 93 1014.8
20260901094502 67 257 0.0 0.0 0.00 0.00 0.00 93 1014.8
20260901093509 67 257 0.0 0.0 0.00 0.00 0.00 92 1014.9
20260901093009 67 257 0.0 0.0 0.00 0.00 0.00 92 1014.9
20260901092509 67 257 0.0 0.0 0.00 0.00 0.00 92 1014.9
20260901092009 67 257 0.0 0.0 0.00 0.00 0.00 92 1014.9
20260901091509 67 257 0.0 0.0 0.00 0.00 0.00 92 1014.9
20260901091008 67 257 0.0 0.0 0.00 0.00 0.00 92 1014.8
20260901090511 67 257 0.0 0.0 0.00 0.00 0.00 92 1014.8
20260901090012 67 257 0.0 0.0 0.00 0.00 0.00 92 1014.8
20260901085507 67 257 0.0 0.0 0.00 0.00 0.00 92 1014.9
20260901085007 67 257 0.0 0.0 0.00 0.00 0.00 92 1014.9
20260901084505 67 257 0.0 0.0 0.00 0.00 0.00 91 1015.0
20260901083556 67 257 0.0 0.0 0.00 0.00 0.00 91 1015.3
20260901083100 67 257 0.0 0.0 0.00 0.00 0.00 91 1015.5
20260901082555 67 257 0.0 0.0 0.00 0.00 0.00 91 1015.6
20260901082054 67 257 0.0 0.0 0.00 0.00 0.00 91 1015.7
20260901081554 67 257 0.0 0.0 0.00 0.00 0.00 91 1015.9
20260901081054 67 257 0.0 0.0 0.00 0.00 0.00 91 1015.9
20260901080554 67 257 0.0 0.0 0.00 0.00 0.00 91 1015.8
20260901080057 67 257 0.0 0.0 0.00 0.00 0.00 90 1015.8
20260901075553 67 257 0.0 0.0 0.00 0.00 0.00 90 1015.7
20260901075058 67 257 0.0 0.0 0.00 0.00 0.00 90 1015.7
20260901074553 67 257 0.0 0.0 0.00 0.00 0.00 90 1015.7
20260901073554 67 257 0.0 0.0 0.00 0.00 0.00 90 1015.8
20260901073053 67 257 0.0 0.0 0.00 0.00 0.00 90 1015.7
20260901072553 67 257 0.0 0.0 0.00 0.00 0.00 90 1015.6
20260901072055 67 257 0.0 0.0 0.00 0.00 0.00 90 1015.5
20260901071553 67 257 0.0 0.0 0.00 0.00 0.00 90 1015.5
20260901071151 67 257 0.0 0.0 0.00 0.00 0.00 90 1015.5
20260901070551 67 257 0.0 0.0 0.00 0.00 0.00 90 1015.6
20260901070056 67 257 0.0 0.0 0.00 0.00 0.00 89 1015.6
20260901065550 67 257 0.0 0.0 0.00 0.00 0.00 89 1015.5
20260901065051 68 257 0.0 0.0 0.00 0.00 0.00 89 1015.8
20260901064549 68 257 0.0 0.0 0.00 0.00 0.00 89 1015.8
20260901063548 68 257 0.0 0.0 0.00 0.00 0.00 88 1016.0
20260901063052 68 257 0.0 0.0 0.00 0.00 0.00 88 1016.1
20260901062551 68 257 0.0 0.0 0.00 0.00 0.00 88 1016.2
20260901062049 68 257 0.0 0.0 0.00 0.00 0.00 87 1016.2
20260901061548 68 257 0.0 0.0 0.00 0.00 0.00 87 1016.2
20260901061048 68 257 0.0 0.0 0.00 0.00 0.00 87 1016.1
20260901060547 68 257 0.0 0.0 0.00 0.00 0.00 87 1016.1
20260901060047 68 257 0.0 0.0 0.00 0.00 0.00 87 1016.0
20260901055547 68 257 0.0 0.0 0.00 0.00 0.00 87 1016.0
20260901055047 68 257 0.0 0.0 0.00 0.00 0.00 87 1016.0
20260901054548 68 257 0.0 0.0 0.00 0.00 0.00 87 1016.0
20260901053548 68 257 0.0 0.0 0.00 0.00 0.00 87 1016.2
20260901053058 68 257 0.0 0.0 0.00 0.00 0.00 87 1016.2
20260901052547 68 258 0.0 0.0 0.00 0.00 0.00 87 1016.1
20260901052050 68 258 0.0 0.0 0.00 0.00 0.00 87 1016.1
20260901051549 68 257 0.0 0.0 0.00 0.00 0.00 88 1016.1
20260901051047 68 257 0.0 0.0 0.00 0.00 0.00 88 1016.1
20260901050550 68 257 0.0 0.0 0.00 0.00 0.00 88 1016.3
20260901050046 68 257 0.0 0.0 0.00 0.00 0.00 88 1016.3
20260901045546 68 257 0.0 0.0 0.00 0.00 0.00 88 1016.3
20260901045045 68 257 0.0 0.0 0.00 0.00 0.00 88 1016.3
20260901044601 68 257 0.0 0.0 0.00 0.00 0.00 88 1016.4
20260901043547 68 257 0.0 0.0 0.00 0.00 0.00 88 1016.3
20260901043048 68 258 0.0 0.0 0.00 0.20 0.00 88 1016.4
20260901042546 68 257 0.0 0.0 0.00 0.20 0.00 88 1016.5
20260901042046 68 257 0.0 0.0 0.00 0.20 0.00 88 1016.6
20260901041545 68 256 0.0 0.0 0.00 0.20 0.00 88 1016.6
20260901041050 68 257 0.0 0.0 0.00 0.20 0.00 88 1016.6
20260901040546 68 256 0.0 0.0 0.00 0.20 0.00 88 1016.6
20260901040046 68 256 0.0 0.0 0.00 0.20 0.00 88 1016.6
20260901035548 68 256 0.0 0.0 0.00 0.20 0.00 87 1016.7
20260901035048 68 255 0.0 0.0 0.00 0.20 0.00 87 1016.8
20260901034544 68 234 0.0 0.0 0.00 0.20 0.00 87 1016.7
20260901033539 68 234 0.0 0.0 0.00 0.20 0.00 86 1016.7
20260901033039 68 234 0.0 0.0 0.00 0.90 0.00 86 1016.7
20260901032538 68 234 0.0 0.0 0.00 0.90 0.00 86 1016.7
20260901032038 68 234 0.0 0.0 0.00 0.90 0.00 85 1016.7
20260901031538 68 234 0.0 0.0 0.00 0.90 0.00 85 1016.6
20260901031037 68 234 0.0 0.0 0.00 0.90 0.00 85 1016.6
20260901030537 68 234 0.0 0.0 0.00 0.90 0.00 84 1016.6
20260901030047 68 233 0.0 0.0 0.00 0.90 0.00 84 1016.6
20260901025538 68 233 0.0 0.0 0.00 0.90 0.00 84 1016.6
20260901025040 68 233 0.0 0.0 0.00 0.90 0.00 84 1016.6
20260901024538 68 233 0.0 0.0 0.00 0.90 0.00 84 1016.6
20260901023537 68 243 0.0 0.0 0.00 0.90 0.00 84 1016.6
20260901023036 68 298 0.0 0.0 0.00 0.94 0.00 84 1016.6
20260901022536 68 314 0.0 0.0 0.00 0.94 0.00 84 1016.7
20260901022035 68 284 0.0 0.0 0.00 0.94 0.00 84 1016.7
20260901021535 68 279 0.0 0.0 0.00 0.94 0.00 83 1016.7
20260901021036 69 279 0.0 0.0 0.00 0.94 0.00 83 1016.8
20260901020536 69 272 0.0 0.0 0.00 0.94 0.00 83 1016.9
20260901020035 69 272 0.0 0.0 0.00 0.94 0.00 83 1016.9
20260901015534 69 255 0.0 0.0 0.00 0.94 0.00 82 1017.0
20260901015036 69 324 0.0 0.0 0.00 0.94 0.00 82 1017.0
20260901014540 69 317 0.0 0.0 0.00 0.94 0.00 82 1017.0
20260901013535 68 354 0.0 0.0 0.00 0.94 0.00 82 1017.0
20260901013034 68 18 0.0 0.0 0.00 0.94 0.00 83 1016.9
20260901012538 68 281 0.0 0.0 0.00 0.94 0.00 83 1016.8
20260901012034 69 347 0.0 0.0 0.00 0.94 0.00 83 1016.9
20260901011533 69 48 0.0 0.0 0.00 0.94 0.00 83 1016.9
20260901011033 69 51 0.0 0.0 0.00 0.94 0.00 83 1016.9
20260901010533 69 297 0.0 0.0 0.00 0.94 0.00 82 1016.9
20260901010034 69 257 0.0 0.0 0.00 0.94 0.00 83 1017.0
20260901005534 69 5 0.0 0.0 0.00 0.94 0.00 83 1017.0
20260901005032 69 354 0.0 0.0 0.00 0.94 0.00 83 1017.0
20260901004538 69 41 0.0 0.0 0.00 0.94 0.00 83 1016.9
20260901003534 69 290 0.0 1.0 0.00 0.94 0.00 83 1016.8
20260901003038 69 91 0.0 1.0 0.00 0.94 0.00 83 1016.9
20260901002534 69 39 0.0 0.0 0.00 0.94 0.00 83 1016.9
20260901002034 69 262 0.0 0.0 0.00 0.94 0.00 83 1017.0
20260901001533 69 44 0.0 0.0 0.00 0.94 0.00 83 1016.9
20260901001035 69 44 0.0 0.0 0.00 0.94 0.00 83 1016.9
20260901000533 69 44 0.0 0.0 0.00 0.94 0.00 83 1017.0
20260901000033 69 332 0.0 0.0 0.00 0.94 0.00 83 1016.9
20260831235533 69 39 0.0 0.0 0.00 0.94 0.00 83 1017.0
20260831235033 69 230 0.0 0.0 0.00 0.94 0.00 83 1016.9
20260831234532 69 47 0.0 0.0 0.00 0.94 0.00 83 1016.9
20260831233530 69 354 0.0 0.0 0.00 0.94 0.00 83 1016.9
20260831233030 69 40 0.0 0.0 0.00 0.94 0.00 83 1017.1
20260831232530 69 41 0.0 0.0 0.00 0.94 0.00 83 1017.0
20260831232029 69 27 0.0 0.0 0.00 0.94 0.00 83 1017.0
20260831231530 69 8 0.0 0.0 0.00 0.94 0.00 83 1017.0
20260831231029 69 253 0.0 0.0 0.00 0.94 0.00 83 1016.9
20260831230529 69 25 0.0 0.0 0.00 0.94 0.00 83 1017.0
20260831230033 70 289 0.0 0.0 0.00 0.94 0.00 83 1017.0
20260831225528 70 3 0.0 0.0 0.00 0.94 0.00 83 1017.0
20260831225031 70 4 0.0 0.0 0.00 0.94 0.00 82 1017.1
20260831224527 70 198 0.0 0.0 0.00 0.94 0.00 82 1017.0
20260831223529 70 352 0.0 0.0 0.00 0.94 0.00 80 1017.0
20260831223025 70 342 0.0 0.0 0.00 0.94 0.00 79 1017.0
20260831222524 70 8 0.0 0.0 0.00 0.94 0.00 79 1017.0
20260831222025 71 309 0.0 0.0 0.00 0.94 0.00 78 1017.0
20260831221533 71 176 0.0 0.0 0.00 0.94 0.00 78 1017.0
20260831221022 71 38 0.0 0.0 0.00 0.94 0.00 78 1017.0
20260831220522 71 311 0.0 0.0 0.00 0.94 0.00 77 1017.1
20260831220021 71 60 0.0 0.0 0.00 0.94 0.00 77 1017.1
20260831215521 71 260 0.0 0.0 0.00 0.94 0.00 77 1017.1
20260831215022 71 290 0.0 0.0 0.00 0.94 0.00 77 1017.0
20260831214536 72 68 0.0 0.0 0.00 0.94 0.00 76 1017.1
20260831213521 72 255 0.0 0.0 0.00 0.94 0.00 76 1017.2
20260831213021 72 297 0.0 0.0 0.00 0.94 0.00 74 1017.2
20260831212522 73 11 0.0 0.0 0.00 0.94 0.00 74 1017.1
20260831212021 73 199 0.0 1.0 0.00 0.94 0.00 74 1017.2
20260831211522 73 243 0.0 1.0 0.00 0.94 0.00 72 1017.1
20260831211021 73 18 0.0 0.0 0.00 0.94 0.00 74 1017.2
20260831210621 73 269 0.0 0.0 0.00 0.94 0.00 72 1017.2
20260831210020 73 225 0.0 0.0 0.00 0.94 0.00 72 1017.1
20260831205521 73 209 0.0 0.0 0.00 0.94 0.00 72 1017.0
20260831205025 73 280 0.0 0.0 0.00 0.94 0.00 72 1017.0
20260831204520 73 250 0.0 0.0 0.00 0.94 0.00 71 1017.0
20260831203530 73 293 0.0 0.0 0.00 0.94 0.00 70 1016.9
20260831203028 73 75 0.0 0.0 0.00 0.94 0.00 69 1016.8
20260831202528 74 39 0.0 0.0 0.00 0.94 0.00 68 1016.7
20260831202031 74 58 0.0 0.0 0.00 0.94 0.00 67 1016.7
20260831201534 75 3 0.0 0.0 0.00 0.94 0.00 66 1016.9
20260831201030 75 6 0.0 0.0 0.00 0.94 0.00 66 1017.1
20260831200526 76 93 0.0 0.0 0.00 0.94 0.00 66 1017.0
20260831200038 76 242 0.0 0.0 0.00 0.94 0.00 66 1017.0
20260831195526 76 316 0.0 0.0 0.00 0.94 0.00 67 1017.0
20260831195025 77 184 0.0 0.0 0.00 0.94 0.00 65 1017.0
20260831194527 77 19 0.0 0.0 0.00 0.94 0.00 63 1016.9
20260831193515 77 333 0.0 0.0 0.00 0.94 0.00 61 1017.1
20260831193013 77 236 0.0 0.0 0.00 0.94 0.00 62 1017.1
20260831192514 77 141 0.0 0.0 0.00 0.94 0.00 60 1017.2
20260831192013 77 267 0.0 0.0 0.00 0.94 0.00 60 1017.3
20260831191512 77 80 0.0 0.0 0.00 0.94 0.00 61 1017.1
20260831191012 77 250 0.0 0.0 0.00 0.94 0.00 60 1017.2
20260831190512 77 248 0.0 0.0 0.00 0.94 0.00 61 1017.2
20260831190014 77 275 0.0 0.0 0.00 0.94 0.00 59 1017.2
20260831185511 78 294 0.0 0.0 0.00 0.94 0.00 59 1017.3
20260831185010 78 325 0.0 0.0 0.00 0.94 0.00 60 1017.4
20260831184517 78 225 0.0 0.0 0.00 0.94 0.00 60 1017.4
20260831183510 79 39 0.0 0.0 0.00 0.94 0.00 60 1017.5
20260831183010 79 224 0.0 0.0 0.00 0.94 0.00 62 1017.6
20260831182512 78 33 0.0 0.0 0.00 0.94 0.00 60 1017.6
20260831182009 78 6 0.0 0.0 0.00 0.94 0.00 60 1017.5
20260831181509 79 92 0.0 0.0 0.00 0.94 0.00 61 1017.5
20260831181008 79 300 0.0 0.0 0.00 0.94 0.00 58 1017.5
20260831180507 79 233 0.0 0.0 0.00 0.94 0.00 55 1017.6
20260831180007 80 205 0.0 0.0 0.00 0.94 0.00 54 1017.5
20260831175507 80 223 0.0 0.0 0.00 0.94 0.00 54 1017.7
20260831175005 80 278 0.0 0.0 0.00 0.94 0.00 55 1017.8
20260831174504 80 226 0.0 0.0 0.00 0.94 0.00 54 1017.9
20260831173515 79 196 0.0 1.0 0.00 0.94 0.00 56 1017.9
20260831173015 79 237 0.0 0.0 0.00 0.94 0.00 59 1017.9
20260831172514 78 245 0.0 0.0 0.00 0.94 0.00 63 1017.8
20260831172017 78 236 0.0 0.0 0.00 0.94 0.00 58 1017.9
20260831171512 77 351 0.0 0.0 0.00 0.94 0.00 60 1017.8
20260831171012 77 352 0.0 0.0 0.00 0.94 0.00 59 1017.8
20260831170511 77 323 0.0 0.0 0.00 0.94 0.00 57 1017.9
20260831170010 77 187 0.0 0.0 0.00 0.94 0.00 57 1018.1
20260831165510 77 347 0.0 0.0 0.00 0.94 0.00 56 1018.0
20260831165009 78 347 0.0 0.0 0.00 0.94 0.00 58 1018.2
20260831164508 77 207 0.0 0.0 0.00 0.94 0.00 59 1018.3
20260831163515 77 226 0.0 0.0 0.00 0.94 0.00 60 1018.3
20260831163035 77 225 0.0 0.0 0.00 0.94 0.00 58 1018.3
20260831162513 77 212 0.0 0.0 0.00 0.94 0.00 63 1018.3
20260831162013 77 198 0.0 0.0 0.00 0.94 0.00 59 1018.3
20260831161514 76 321 0.0 0.0 0.00 0.94 0.00 61 1018.4
20260831161009 76 209 0.0 0.0 0.00 0.94 0.00 63 1018.4
20260831160508 75 341 0.0 0.0 0.00 0.94 0.00 65 1018.5
20260831160008 75 1 0.0 0.0 0.00 0.94 0.00 67 1018.4
20260831155509 74 224 0.0 0.0 0.00 0.94 0.00 69 1018.5
20260831155005 73 203 0.0 0.0 0.00 0.94 0.00 68 1018.5